Regional Weather Roundup
Issued by NWS Upton, NY

Current Version | Previous Version | Graphics & Text | Print | Product List | Glossary Off
Versions: 1 2 3 4 5 6 7 8 9 10 11 12 13 14 15 16 17 18 19 20 21 22 23 24 25 26 27 28 29 30 31 32 33 34 35 36 37 38 39 40 41 42 43 44 45 46 47 48 49 50

450
ASUS41 KOKX 270104
RWROKX

REGIONAL WEATHER ROUNDUP
NATIONAL WEATHER SERVICE NEW YORK NY
900 PM EDT FRI AUG 26 2016

NOTE: "FAIR" INDICATES FEW OR NO CLOUDS BELOW 12,000 FEET WITH NO
SIGNIFICANT WEATHER AND/OR OBSTRUCTIONS TO VISIBILITY.

NYZ071-072-176-178-NJZ106-104-270200-
NEW YORK CITY METRO AREA

CITY           SKY/WX    TMP DP  RH WIND       PRES   REMARKS
Central Park     N/A     84  61  45 MISG        N/A
LaGuardia APRT PTCLDY    86  64  47 NW13      30.02R
Kennedy INTL   PTCLDY    86  68  54 N9        30.03R
Newark/Liberty PTCLDY    85  63  47 NW13      30.02R
Bronx Bot Gard   N/A     82  63  51 N3        30.04R
Wall St Helipt CLEAR     84  64  51 CALM      30.03R
Teterboro      CLEAR     83  63  50 NW6       30.01R
$$

NYZ177-179-078>081-270200-
LONG ISLAND NEW YORK

CITY           SKY/WX    TMP DP  RH WIND       PRES   REMARKS
Farmingdale    CLEAR     84  65  52 N3        30.02R
MacArthur/ISP  PTCLDY    79  67  66 NW6       30.01R
Shirley        CLEAR     75  65  70 NW5       30.02R
Riverhead      NOT AVBL
Westhampton    CLEAR     72  69  90 CALM      30.03R
Southampton      N/A     75  72  88 CALM      29.97R
Bridgehampton    N/A     75  72  88 CALM      29.99R
East Hampton   FAIR      73  71  95 CALM      30.00R
Montauk          N/A     76  73  91 CALM      30.01R
$$

NYZ052-065-067-270200-
HUDSON VALLEY

CITY           SKY/WX    TMP DP  RH WIND       PRES   REMARKS
White Plains   CLEAR     76  66  71 N6        30.04R
Newburgh       NOT AVBL
Montgomery     CLEAR     76  64  66 NW3       30.05R
Poughkeepsie   CLEAR     73  65  75 CALM      30.03R
Albany         PTCLDY    75  59  57 W10       30.06R
$$

NJZ001-105-106-008-010-013-015-019>022-104-270200-
NEW JERSEY

CITY           SKY/WX    TMP DP  RH WIND       PRES   REMARKS
Newark/Liberty PTCLDY    85  63  47 NW13      30.02R
Teterboro      CLEAR     83  63  50 NW6       30.01R
Caldwell       CLEAR     79  67  66 CALM      30.05R
Morristown     PTCLDY    75  66  73 CALM      30.05R
Somerville     CLEAR     74  68  81 CALM      30.03R
Linden         FAIR      84  62  47 N7        30.04R
Sussex         CLEAR     72  67  84 CALM      30.08R
Abdover          N/A     69  66  90 CALM      30.08R
Trenton        CLEAR     80  66  62 N5        30.04R
Millville      CLEAR     77  71  82 W5        30.04R
Atlantic City  PTCLDY    83  68  60 NW6       30.03R
Wrightstown    CLEAR     78  68  70 NW6       30.01R
Toms River     CLEAR     81  68  64 NW5       30.03R
Belmar         CLEAR     81  68  64 NW3       30.04R
$$

PAZ047>061-062-071-270200-
EASTERN PENNSYLVANIA

CITY           SKY/WX    TMP DP  RH WIND       PRES   REMARKS
Philadelphia   CLEAR     87  64  46 NW9       30.04R
Allentown      CLEAR     77  62  59 NW3       30.07R
Scranton       CLEAR     74  63  68 E6        30.11R
$$

CTZ002-004>006-009-010-012-RIZ004-006-007-MAZ004-011-015-270200-
SOUTHERN NEW ENGLAND
 IN CT

CITY           SKY/WX    TMP DP  RH WIND       PRES   REMARKS
Bradley INTL   CLEAR     77  63  61 NW6       30.03R
Hartford       CLEAR     84  62  47 NW8       30.01R
Danbury        CLEAR     73  65  75 CALM      30.06R
Wtrbury/Oxford   N/A     72  57  60 N7        30.08R
Bridgeport     CLEAR     82  63  52 NW7       30.01R
Meriden        CLEAR     73  64  73 SE3       30.02R
New Haven      PTCLDY    78  61  55 N3        30.02R
Chester        FAIR      77  64  65 NW5       30.03R
Groton         CLEAR     76  71  85 CALM      29.99R
Wilimantic     CLEAR     77  72  84 CALM      30.02R

 IN RI

CITY           SKY/WX    TMP DP  RH WIND       PRES   REMARKS
Providence     CLEAR     82  67  60 NW6       29.99R
Block Island   CLEAR     73  71  93 SW5       30.00R
Westerly       CLEAR     76  69  79 CALM      30.00R
 IN MA

CITY           SKY/WX    TMP DP  RH WIND       PRES   REMARKS
Boston         PTCLDY    85  63  47 NW8       29.99R
Worcester      CLEAR     73  61  65 W7        30.05R
Westfield      CLEAR     77  65  66 N5        30.03R
Provincetown   CLEAR     72  71  97 SW5       29.99R
Nantucket      CLOUDY    73  72  96 SW5       29.99R FOG
$$

ANZ330-335-338-340-345-350-353-355-270200-
COASTAL MARINE OBSERVATIONS


STATION/POSITION TIME  SKY/WX   TEMP    WIND        PRES    VSBY  WAVE
                                AIR SEA DIR/SP/G                  HT/PER
                 (UTC)          (F)     (DEG/KT/KT) (MB)    (MI)  (FT/S)
NY HARB ENTRANCE 0050            80 77  320/  4/  4 1016.2          2/ 6
20S FIRE ISLAND  2350            76 74  270/  6/  8 1015.6          3/ 6
GREAT SOUTH BAY  0000            83 79  350/  6/  8   N/A
23 SSW MONTAUK P 2350            76 74  250/ 10/ 12 1015.7          3/ 6
15 E BARNEGAT LI 0000               77                N/A           3/ 6
HUDSON CANYON    2350            80 79              1015.6          3/ 6
KINGS POINT      0000            82 77              1016.0
EXECUTION ROCKS  0000            82     310/  6/  8   N/A
CENTRAL LI SOUND 0000            81 77  310/  8/  8   N/A           1
EASTERN LI SOUND 0000            74 71  210/  4/  4   N/A
ROBBINS REEF     0000            87     340/ 10/ 15 1015.6
$$


>>>>>>>>>>>>>>>>>>>>>>>>>>>> KEY <<<<<<<<<<<<<<<<<<<<<<<<<<<
>                                                          <
>     SKY/WX - Sky Condition/Present Weather               <
>     TMP    - Temperature in Fahrenheit                   <
>     DP     - Dew Point in Fahrenheit                     <
>     RH     - Relative Humidity in Percent                <
>     WIND   - Direction (from) and Speed in MPH           <
>     PRES   - Mean Sea Level Pressure (inches of Hg)      <
>     WCI    - Wind Chill Index                            <
>     VSB    - VISIBILITY IN MILES                         <
>     HX     - HEAT INDEX                                  <
>     TC     - TEMPERATURE IN CELSIUS                      <
>     VRB    - VARIABLE WIND DIRECTION                     <
>                                                          <
>>>>>>>>>>>>>>>>>>>>>>>>>>>> KEY <<<<<<<<<<<<<<<<<<<<<<<<<<<




USA.gov is the U.S. government's official web portal to all federal, state and local government web resources and services.